Weather History for Toms River, NJ

Change the Weather History Date:

Saturday, June 29, 2013

  Actual Average Record
Temperature  
Mean Temperature 75 °F -  
Max Temperature 84 °F 83 °F 98 °F (1969)
Min Temperature 66 °F 61 °F 48 °F (1970)
Cooling Degree Days 10    
Growing Degree Days 25 (Base 50)    
Moisture  
Dew Point 69 °F    
Average Humidity 84    
Maximum Humidity 100    
Minimum Humidity 55    
Precipitation  
Precipitation 0.03 in - - ()
Sea Level Pressure  
Sea Level Pressure 29.61 in    
Wind  
Wind Speed 6 mph (SSW)    
Max Wind Speed 13 mph    
Max Gust Speed 18 mph    
Visibility 10 miles    
Events      
Averages and records for this station are not official NWS values.
T = Trace of Precipitation, MM = Missing Value Source: NWS Daily Summary

Daily Weather History Graph

Daily Weather History Graph

Search for Another Location

Airport:

Trip Planner

Search our weather history database for the weather conditions in past years. The results will help you decide how hot, cold, wet, or windy it might be!

Date:

Astronomy

Jun. 29, 2013 Rise Set
Actual Time 5:31 AM EDT 8:29 PM EDT
Civil Twilight 4:58 AM EDT 9:02 PM EDT
Nautical Twilight 4:17 AM EDT 9:43 PM EDT
Astronomical Twilight 3:29 AM EDT 10:31 PM EDT
Moon No Moon Rise 12:40 PM EDT (6/29)
Length of Visible Light 16h 03m
Length of Day
14h 58m
Waning Gibbous, 56% of the Moon is Illuminated
Jun 29
Waning Gibbous
Jun 30
Last Quarter
Jul 8
New
Jul 15
First Quarter
Jul 22
Full

Hourly Weather History & Observations

Time (EDT) Temp. Heat Index Dew Point Humidity Pressure Visibility Wind Dir Wind Speed Gust Speed Precip Events Conditions
12:15 AM 69.8 °F - 69.8 °F 100% 29.52 in 10.0 mi NW 9.2 mph - N/A   Clear
12:35 AM 69.8 °F - 68.0 °F 94% 29.52 in 10.0 mi SSE 3.5 mph - N/A   Clear
12:55 AM 69.8 °F - 68.0 °F 94% 29.53 in 10.0 mi South 3.5 mph - N/A   Clear
1:15 AM 69.8 °F - 68.0 °F 94% 29.53 in 10.0 mi South 3.5 mph - N/A   Clear
1:35 AM 69.8 °F - 68.0 °F 94% 29.52 in 10.0 mi Calm Calm - N/A   Clear
1:55 AM 69.8 °F - 68.0 °F 94% 29.52 in 10.0 mi Calm Calm - N/A   Clear
2:15 AM 69.8 °F - 68.0 °F 94% 29.52 in 9.0 mi Calm Calm - N/A   Clear
2:35 AM 68.0 °F - 68.0 °F 100% 29.52 in 7.0 mi Calm Calm - N/A   Mostly Cloudy
2:55 AM 68.0 °F - 68.0 °F 100% 29.53 in 7.0 mi SE 3.5 mph - N/A   Overcast
3:15 AM 68.0 °F - 66.2 °F 94% 29.53 in 10.0 mi Calm Calm - N/A   Partly Cloudy
3:35 AM 66.2 °F - 64.4 °F 94% 29.53 in 9.0 mi Calm Calm - N/A   Clear
3:55 AM 66.2 °F - 66.2 °F 100% 29.54 in 7.0 mi Calm Calm - N/A   Clear
4:15 AM 66.2 °F - 66.2 °F 100% 29.54 in 7.0 mi South 5.8 mph - N/A   Clear
4:35 AM 66.2 °F - 66.2 °F 100% 29.55 in 9.0 mi South 4.6 mph - N/A   Partly Cloudy
4:55 AM 66.2 °F - 66.2 °F 100% 29.56 in 7.0 mi South 4.6 mph - N/A   Mostly Cloudy
5:15 AM 66.2 °F - 66.2 °F 100% 29.57 in 8.0 mi South 6.9 mph - N/A   Overcast
5:35 AM 66.2 °F - 66.2 °F 100% 29.57 in 9.0 mi SE 5.8 mph - N/A   Overcast
5:55 AM 68.0 °F - 66.2 °F 94% 29.58 in 10.0 mi SSW 3.5 mph - N/A   Overcast
6:15 AM 68.0 °F - 66.2 °F 94% 29.59 in 10.0 mi SW 4.6 mph - N/A   Mostly Cloudy
6:35 AM 68.0 °F - 68.0 °F 100% 29.60 in 10.0 mi SSW 5.8 mph - N/A   Scattered Clouds
6:55 AM 68.0 °F - 68.0 °F 100% 29.60 in 9.0 mi SSW 5.8 mph - 0.03 in   Mostly Cloudy
7:15 AM 69.8 °F - 68.0 °F 94% 29.60 in 10.0 mi SSW 5.8 mph - N/A   Partly Cloudy
7:35 AM 69.8 °F - 68.0 °F 94% 29.60 in 10.0 mi SW 4.6 mph - N/A   Mostly Cloudy
7:55 AM 69.8 °F - 68.0 °F 94% 29.60 in 10.0 mi WSW 3.5 mph - N/A   Overcast
8:15 AM 69.8 °F - 69.8 °F 100% 29.60 in 10.0 mi SW 4.6 mph - N/A   Mostly Cloudy
8:35 AM 69.8 °F - 69.8 °F 100% 29.60 in 10.0 mi SW 4.6 mph - N/A   Scattered Clouds
8:55 AM 71.6 °F - 69.8 °F 94% 29.62 in 10.0 mi WSW 6.9 mph - N/A   Partly Cloudy
9:15 AM 73.4 °F - 71.6 °F 94% 29.61 in 10.0 mi West 5.8 mph - N/A   Partly Cloudy
9:35 AM 75.2 °F - 69.8 °F 83% 29.61 in 10.0 mi West 6.9 mph - N/A   Mostly Cloudy
9:55 AM 75.2 °F - 69.8 °F 83% 29.62 in 10.0 mi WSW 6.9 mph - N/A   Scattered Clouds
10:15 AM 78.8 °F - 71.6 °F 78% 29.61 in 10.0 mi West 5.8 mph - N/A   Scattered Clouds
10:35 AM 78.8 °F - 69.8 °F 74% 29.61 in 10.0 mi West 11.5 mph - N/A   Scattered Clouds
10:55 AM 80.6 °F 83.9 °F 69.8 °F 70% 29.62 in 10.0 mi WSW 10.4 mph - N/A   Partly Cloudy
11:15 AM 82.4 °F 84.6 °F 66.2 °F 58% 29.62 in 10.0 mi WSW 8.1 mph - N/A   Partly Cloudy
11:35 AM 82.4 °F 85.4 °F 68.0 °F 62% 29.62 in 10.0 mi South 10.4 mph - N/A   Partly Cloudy
11:55 AM 82.4 °F 85.4 °F 68.0 °F 62% 29.62 in 10.0 mi SW 9.2 mph - N/A   Scattered Clouds
12:15 PM 84.2 °F 87.3 °F 68.0 °F 58% 29.62 in 10.0 mi WSW 9.2 mph - N/A   Scattered Clouds
12:35 PM 84.2 °F 86.6 °F 66.2 °F 55% 29.61 in 10.0 mi SSW 8.1 mph - N/A   Partly Cloudy
12:55 PM 84.2 °F 86.6 °F 66.2 °F 55% 29.61 in 10.0 mi SW 9.2 mph - N/A   Scattered Clouds
1:15 PM 84.2 °F 86.6 °F 66.2 °F 55% 29.61 in 10.0 mi SW 8.1 mph - N/A   Mostly Cloudy
1:35 PM 82.4 °F 86.3 °F 69.8 °F 66% 29.61 in 10.0 mi SSE 3.5 mph - N/A   Overcast
1:55 PM 80.6 °F 83.9 °F 69.8 °F 70% 29.61 in 10.0 mi SSW 4.6 mph - N/A   Overcast
2:15 PM 80.6 °F 84.6 °F 71.6 °F 74% 29.62 in 10.0 mi SSE 6.9 mph - N/A   Overcast
2:35 PM 80.6 °F 84.6 °F 71.6 °F 74% 29.61 in 10.0 mi NNE 4.6 mph - N/A   Overcast
2:55 PM 82.4 °F 87.2 °F 71.6 °F 70% 29.61 in 10.0 mi West 4.6 mph - N/A   Mostly Cloudy
3:15 PM 82.4 °F 87.2 °F 71.6 °F 70% 29.61 in 10.0 mi SE 8.1 mph - N/A   Mostly Cloudy
3:35 PM 84.2 °F 89.6 °F 71.6 °F 66% 29.62 in 10.0 mi SSW 9.2 mph - N/A   Mostly Cloudy
3:55 PM 84.2 °F 89.6 °F 71.6 °F 66% 29.62 in 10.0 mi South 8.1 mph - N/A   Scattered Clouds
4:15 PM 82.4 °F 88.2 °F 73.4 °F 74% 29.62 in 10.0 mi South 12.7 mph - N/A   Partly Cloudy
4:35 PM 82.4 °F 87.2 °F 71.6 °F 70% 29.63 in 10.0 mi South 10.4 mph 17.3 mph N/A   Clear
4:55 PM 82.4 °F 88.2 °F 73.4 °F 74% 29.63 in 10.0 mi South 10.4 mph 16.1 mph N/A   Clear
5:15 PM 80.6 °F 84.6 °F 71.6 °F 74% 29.63 in 10.0 mi South 10.4 mph - N/A   Partly Cloudy
5:35 PM 82.4 °F 87.2 °F 71.6 °F 70% 29.63 in 10.0 mi South 10.4 mph - N/A   Scattered Clouds
5:55 PM 80.6 °F 84.6 °F 71.6 °F 74% 29.63 in 10.0 mi SSW 11.5 mph 16.1 mph N/A   Clear
6:15 PM 80.6 °F 84.6 °F 71.6 °F 74% 29.63 in 10.0 mi South 10.4 mph - N/A   Clear
6:35 PM 78.8 °F - 71.6 °F 78% 29.64 in 10.0 mi South 12.7 mph 18.4 mph N/A   Clear
6:55 PM 78.8 °F - 71.6 °F 78% 29.64 in 10.0 mi South 9.2 mph - N/A   Clear
7:15 PM 78.8 °F - 71.6 °F 78% 29.65 in 10.0 mi SSW 12.7 mph 17.3 mph N/A   Clear
7:35 PM 78.8 °F - 69.8 °F 74% 29.66 in 10.0 mi South 11.5 mph 18.4 mph N/A   Clear
7:55 PM 77.0 °F - 71.6 °F 83% 29.67 in 10.0 mi South 9.2 mph - N/A   Clear
8:15 PM 75.2 °F - 71.6 °F 89% 29.67 in 10.0 mi South 8.1 mph - N/A   Clear
8:35 PM 75.2 °F - 71.6 °F 89% 29.68 in 10.0 mi South 4.6 mph - N/A   Clear
8:55 PM 73.4 °F - 69.8 °F 88% 29.68 in 10.0 mi South 5.8 mph - N/A   Clear
9:15 PM 73.4 °F - 69.8 °F 88% 29.69 in 10.0 mi South 4.6 mph - N/A   Partly Cloudy
9:35 PM 73.4 °F - 69.8 °F 88% 29.70 in 10.0 mi SSW 4.6 mph - N/A   Clear
9:55 PM 71.6 °F - 69.8 °F 94% 29.71 in 10.0 mi SSW 4.6 mph - N/A   Clear
10:15 PM 71.6 °F - 69.8 °F 94% 29.71 in 10.0 mi South 3.5 mph - N/A   Clear
10:35 PM 71.6 °F - 69.8 °F 94% 29.71 in 10.0 mi SSW 4.6 mph - N/A   Clear
10:55 PM 71.6 °F - 68.0 °F 88% 29.71 in 10.0 mi SW 3.5 mph - N/A   Clear
11:15 PM 71.6 °F - 68.0 °F 88% 29.72 in 10.0 mi Calm Calm - N/A   Clear
11:35 PM 69.8 °F - 68.0 °F 94% 29.72 in 10.0 mi South 3.5 mph - N/A   Clear
11:55 PM 69.8 °F - 68.0 °F 94% 29.72 in 10.0 mi SSW 3.5 mph - N/A   Clear